• In Germany
  • List of Countries
  • For 7 days
  • Water Temperature
  • Satellite Maps
  • Weather Map
  • Weather Widgets
  • user-avatar
    Login

    Hourly Weather Thessaloniki

    Today, 27 May, Sunday

    Time Temperature Precipitation Wind Pressure Humidity
    00:00 +23°C° 0 mm 2 mps 760 mmHg 61%
    01:00 +21°C° 0 mm 2 mps 760 mmHg 64%
    02:00 +21°C° 0 mm 1 mps 760 mmHg 68%
    03:00 +21°C° 0 mm 1 mps 760 mmHg 69%
    04:00 +20°C° 0 mm 1 mps 760 mmHg 70%
    05:00 +20°C° 0 mm 1 mps 760 mmHg 71%
    06:00 +22°C° 0 mm 1 mps 760 mmHg 67%
    07:00 +23°C° 0 mm 2 mps 760 mmHg 63%
    08:00 +25°C° 0 mm 2 mps 760 mmHg 58%
    09:00 +26°C° 0 mm 2 mps 760 mmHg 54%
    10:00 +27°C° 0 mm 2 mps 760 mmHg 50%
    11:00 +29°C° 0 mm 2 mps 760 mmHg 45%
    12:00 +30°C° 0.1 mm 2 mps 759 mmHg 44%
    13:00 +30°C° 0.1 mm 2 mps 759 mmHg 42%
    14:00 +31°C° 0.1 mm 2 mps 759 mmHg 41%
    15:00 +30°C° 0.1 mm 2 mps 759 mmHg 43%
    16:00 +30°C° 0.1 mm 2 mps 758 mmHg 45%
    17:00 +29°C° 0.1 mm 3 mps 758 mmHg 47%
    18:00 +28°C° 0.2 mm 3 mps 758 mmHg 54%
    19:00 +26°C° 0.2 mm 2 mps 759 mmHg 60%
    20:00 +24°C° 0.2 mm 2 mps 759 mmHg 67%
    21:00 +23°C° 0.4 mm 2 mps 759 mmHg 70%
    22:00 +23°C° 0.4 mm 2 mps 760 mmHg 74%
    23:00 +22°C° 0.4 mm 1 mps 760 mmHg 78%

    Tomorrow, 28 May, Monday

    Time Temperature Precipitation Wind Pressure Humidity
    00:00 +22°C° 0.1 mm 1 mps 760 mmHg 79%
    01:00 +21°C° 0.1 mm 1 mps 760 mmHg 81%
    02:00 +19°C° 0.1 mm 0 mps 760 mmHg 82%
    03:00 +21°C° 0 mm 1 mps 760 mmHg 83%
    04:00 +20°C° 0 mm 1 mps 760 mmHg 84%
    05:00 +20°C° 0 mm 1 mps 760 mmHg 85%
    06:00 +22°C° 0 mm 1 mps 760 mmHg 80%
    07:00 +23°C° 0 mm 1 mps 760 mmHg 75%
    08:00 +22°C° 0 mm 0 mps 760 mmHg 69%
    09:00 +26°C° 0.3 mm 1 mps 760 mmHg 65%
    10:00 +27°C° 0.3 mm 1 mps 760 mmHg 61%
    11:00 +28°C° 0.3 mm 1 mps 760 mmHg 57%
    12:00 +28°C° 0.6 mm 2 mps 760 mmHg 56%
    13:00 +29°C° 0.6 mm 2 mps 759 mmHg 54%
    14:00 +29°C° 0.6 mm 2 mps 759 mmHg 52%
    15:00 +29°C° 0.7 mm 3 mps 759 mmHg 55%
    16:00 +28°C° 0.7 mm 3 mps 758 mmHg 58%
    17:00 +27°C° 0.7 mm 4 mps 758 mmHg 60%
    18:00 +26°C° 0.6 mm 3 mps 759 mmHg 66%
    19:00 +25°C° 0.6 mm 2 mps 759 mmHg 72%
    20:00 +23°C° 0.6 mm 2 mps 759 mmHg 78%
    21:00 +23°C° 0.2 mm 2 mps 759 mmHg 78%
    22:00 +22°C° 0.2 mm 1 mps 760 mmHg 79%
    23:00 +22°C° 0.2 mm 1 mps 760 mmHg 80%

    Day after tomorrow, 29 May, Tuesday

    Time Temperature Precipitation Wind Pressure Humidity
    00:00 +22°C° 0 mm 1 mps 760 mmHg 81%
    01:00 +21°C° 0 mm 1 mps 760 mmHg 81%
    02:00 +21°C° 0 mm 1 mps 760 mmHg 82%
    03:00 +21°C° 0 mm 1 mps 760 mmHg 82%
    04:00 +21°C° 0 mm 1 mps 760 mmHg 83%
    05:00 +21°C° 0 mm 1 mps 759 mmHg 83%
    06:00 +22°C° 0 mm 1 mps 759 mmHg 78%
    07:00 +23°C° 0 mm 1 mps 759 mmHg 73%
    08:00 +24°C° 0 mm 1 mps 759 mmHg 68%
    09:00 +25°C° 0 mm 1 mps 759 mmHg 64%
    10:00 +26°C° 0 mm 1 mps 759 mmHg 60%
    11:00 +27°C° 0 mm 1 mps 759 mmHg 56%
    12:00 +28°C° 0.1 mm 1 mps 759 mmHg 53%
    13:00 +29°C° 0.1 mm 2 mps 758 mmHg 51%
    14:00 +29°C° 0.1 mm 2 mps 758 mmHg 49%
    15:00 +29°C° 0.1 mm 2 mps 757 mmHg 50%
    16:00 +29°C° 0.1 mm 3 mps 757 mmHg 51%
    17:00 +29°C° 0.1 mm 3 mps 757 mmHg 52%
    18:00 +27°C° 0 mm 3 mps 757 mmHg 59%
    19:00 +25°C° 0 mm 2 mps 757 mmHg 65%
    20:00 +23°C° 0 mm 2 mps 757 mmHg 71%
    21:00 +23°C° 0.1 mm 2 mps 757 mmHg 73%
    22:00 +22°C° 0.1 mm 1 mps 758 mmHg 75%
    23:00 +22°C° 0.1 mm 1 mps 758 mmHg 77%

    30 May, Wednesday

    Time Temperature Precipitation Wind Pressure Humidity
    00:00 +21°C° 0 mm 1 mps 758 mmHg 78%
    01:00 +21°C° 0 mm 1 mps 757 mmHg 79%
    02:00 +19°C° 0 mm 0 mps 757 mmHg 79%
    03:00 +21°C° 0 mm 1 mps 757 mmHg 80%
    04:00 +20°C° 0 mm 1 mps 757 mmHg 81%
    05:00 +20°C° 0 mm 1 mps 757 mmHg 82%
    06:00 +22°C° 0 mm 1 mps 757 mmHg 76%
    07:00 +23°C° 0 mm 1 mps 757 mmHg 70%
    08:00 +23°C° 0 mm 0 mps 757 mmHg 64%
    09:00 +26°C° 0 mm 1 mps 757 mmHg 60%
    10:00 +27°C° 0 mm 1 mps 757 mmHg 55%
    11:00 +29°C° 0 mm 1 mps 757 mmHg 51%
    12:00 +29°C° 0.1 mm 2 mps 756 mmHg 49%
    13:00 +30°C° 0.1 mm 2 mps 756 mmHg 48%
    14:00 +30°C° 0.1 mm 3 mps 756 mmHg 46%
    15:00 +30°C° 0.1 mm 3 mps 755 mmHg 48%
    16:00 +30°C° 0.1 mm 3 mps 755 mmHg 49%
    17:00 +29°C° 0.1 mm 3 mps 755 mmHg 51%
    18:00 +28°C° 0.2 mm 3 mps 755 mmHg 58%
    19:00 +26°C° 0.2 mm 3 mps 755 mmHg 66%
    20:00 +24°C° 0.2 mm 2 mps 755 mmHg 73%
    21:00 +23°C° 0.1 mm 2 mps 756 mmHg 76%
    22:00 +23°C° 0.1 mm 1 mps 756 mmHg 78%
    23:00 +22°C° 0.1 mm 1 mps 756 mmHg 81%

    31 May, Thursday

    Time Temperature Precipitation Wind Pressure Humidity
    00:00 +22°C° 0.2 mm 1 mps 756 mmHg 82%
    01:00 +22°C° 0.2 mm 1 mps 756 mmHg 82%
    02:00 +21°C° 0.2 mm 1 mps 756 mmHg 83%
    03:00 +21°C° 0.2 mm 1 mps 756 mmHg 83%
    04:00 +21°C° 0.2 mm 1 mps 756 mmHg 83%
    05:00 +21°C° 0.2 mm 1 mps 756 mmHg 83%
    06:00 +22°C° 0.1 mm 1 mps 756 mmHg 78%
    07:00 +22°C° 0.1 mm 0 mps 756 mmHg 72%
    08:00 +23°C° 0.1 mm 0 mps 756 mmHg 66%
    09:00 +27°C° 0 mm 1 mps 755 mmHg 61%
    10:00 +28°C° 0 mm 2 mps 755 mmHg 57%
    11:00 +29°C° 0 mm 2 mps 755 mmHg 52%
    12:00 +30°C° 0.1 mm 3 mps 755 mmHg 51%
    13:00 +30°C° 0.1 mm 3 mps 754 mmHg 50%
    14:00 +32°C° 0.1 mm 4 mps 754 mmHg 49%
    15:00 +30°C° 0.1 mm 4 mps 754 mmHg 51%
    16:00 +30°C° 0.1 mm 4 mps 754 mmHg 53%
    17:00 +29°C° 0.1 mm 4 mps 754 mmHg 56%
    18:00 +28°C° 0.3 mm 3 mps 754 mmHg 63%
    19:00 +26°C° 0.3 mm 3 mps 754 mmHg 70%
    20:00 +24°C° 0.3 mm 2 mps 754 mmHg 78%
    21:00 +24°C° 0.7 mm 2 mps 754 mmHg 80%
    22:00 +23°C° 0.7 mm 1 mps 755 mmHg 83%
    23:00 +22°C° 0.7 mm 1 mps 755 mmHg 85%

    1 June, Friday

    Time Temperature Precipitation Wind Pressure Humidity
    00:00 +22°C° 0.3 mm 1 mps 755 mmHg 85%
    01:00 +22°C° 0.3 mm 1 mps 755 mmHg 85%
    02:00 +22°C° 0.3 mm 1 mps 755 mmHg 85%
    03:00 +22°C° 0.1 mm 1 mps 755 mmHg 85%
    04:00 +22°C° 0.1 mm 1 mps 755 mmHg 85%
    05:00 +20°C° 0.1 mm 0 mps 755 mmHg 85%
    06:00 +23°C° 0.1 mm 1 mps 755 mmHg 79%
    07:00 +24°C° 0.1 mm 1 mps 755 mmHg 74%
    08:00 +26°C° 0.1 mm 1 mps 755 mmHg 68%
    09:00 +27°C° 0 mm 1 mps 755 mmHg 63%
    10:00 +29°C° 0 mm 1 mps 755 mmHg 57%
    11:00 +30°C° 0 mm 2 mps 755 mmHg 51%
    12:00 +31°C° 0.4 mm 2 mps 754 mmHg 49%
    13:00 +32°C° 0.4 mm 2 mps 754 mmHg 47%
    14:00 +33°C° 0.4 mm 3 mps 754 mmHg 44%
    15:00 +33°C° 0.3 mm 3 mps 754 mmHg 47%
    16:00 +31°C° 0.3 mm 3 mps 754 mmHg 49%
    17:00 +30°C° 0.3 mm 3 mps 753 mmHg 51%
    18:00 +29°C° 0.5 mm 3 mps 754 mmHg 57%
    19:00 +27°C° 0.5 mm 2 mps 754 mmHg 63%
    20:00 +26°C° 0.5 mm 2 mps 754 mmHg 69%
    21:00 +25°C° 0.8 mm 2 mps 755 mmHg 73%
    22:00 +24°C° 0.8 mm 2 mps 755 mmHg 77%
    23:00 +23°C° 0.8 mm 1 mps 756 mmHg 81%
    Show more